Anticosti: Past 24 Hour Conditions

 

St. John's Int'l Airport

07:30 PM NDT 22 September 2014
This table is a summary of hourly weather conditions for the past 24 hours.
Date / Time
(NDT)
Wind(knots) Conditions Visibility(km) Pressure(kPa) Air tempC) Relative humidity(%) Dew pointC)
22 September 2014
19:30 SSW 27 gust 38 Light Rain 10 100.8 20 97 19
18:30 SSW 26 gust 41 Light Drizzle 13 100.9 20 96 19
17:30 SSW 23 gust 36 Light Drizzle 3 101.0 18 98 18
16:30 S 29 gust 41 Light Drizzle 3 101.0 18 97 18
15:30 S 23 gust 35 Light Drizzle 3 101.2 17 97 17
14:30 S 25 gust 36 Light Rain 10 101.4 17 97 17
13:30 S 28 gust 39 Light Drizzle 19 101.5 17 93 16
12:30 S 31 gust 43 Mostly Cloudy 24 101.7 18 85 16
11:30 S 23 gust 33 Mostly Cloudy 24 101.8 20 79 16
10:30 S 18 gust 23 Mostly Cloudy 24 101.9 18 84 16
9:30 SSW 18 gust 27 Mostly Cloudy 24 102.0 19 86 16
8:30 S 16 gust 23 Mostly Cloudy 24 102.1 18 87 16
7:30 SSW 15 gust 23 Mostly Cloudy 24 102.1 18 89 16
6:30 SSW 14 gust 22 Mostly Cloudy 24 102.1 18 90 16
5:30 SSW 13 gust 19 Mostly Cloudy 24 102.1 18 92 17
4:30 SSW 14 Mostly Cloudy 24 102.2 18 91 17
3:30 SW 16 gust 25 Cloudy 24 102.2 18 92 17
2:30 SW 18 gust 24 Mostly Cloudy 24 102.2 18 93 17
1:30 SW 17 gust 25 Partly Cloudy 24 102.2 17 92 15
0:30 SW 15 Mostly Cloudy 24 102.3 17 88 15
21 September 2014
23:30 SW 11 gust 18 Partly Cloudy 24 102.3 16 88 14
22:30 SW 15 gust 21 Mainly Clear 24 102.2 16 90 15
21:30 SW 15 gust 24 Mainly Clear 24 102.2 16 91 15
20:30 SW 16 Mainly Clear 24 102.2 16 90 14
19:30 SW 16 gust 25 Partly Cloudy 24 102.1 16 88 14
 
Map of Atlantic - Newfoundland marine weather areas Southwestern Grand Banks - 44138 Banquereau - 44139 Tail of the Bank - 44140 Nickerson Bank - 44251 Northeast Burgeo Bank - 44255 Blanc-Sablon Airport Cap Whittle Chevery Natashquan Airport Heath Point Miscou Island Grand Étang Ingonish Beach North Mountain St.Paul Island J.A. Douglas McCurdy Sydney Airport Charlottetown Airport East Point North Cape Argentia Bonavista Burgeo Cape Race Corner Brook Daniel's Harbour Englee Ferolle Point La Scie Port aux Basques Rocky Harbour Sagona Island St. Anthony Airport St. John's Int'l Airport St. Lawrence Stephenville Airport Twillingate Winterland Wreckhouse Cartwright Airport Mary's Harbour Grates Cove Pool's Island Marticot Island Long Pond Îles de la Madeleine Airport
Legend: buoyBuoy land stationLand Station